JF7ELG-13 Weather Reports


time (UTC)temp
C
wind
direction
speed
KPH
gust
KPH
rain 1hr
cm
rain 24hr
cm
rain mn
cm
humidity
%
barometer
mb
20260503021815 21 68 1.6 12.9 0.00 0.00 0.00 71 1007.5
20260503020330 22 269 1.6 6.4 0.00 0.00 0.00 70 1007.2
20260503014812 21 298 3.2 9.7 0.00 0.00 0.00 71 1008.2
20260503013324 21 90 1.6 4.8 0.00 0.00 0.00 70 1008.6
20260503011817 21 94 1.6 8.0 0.00 0.00 0.00 70 1008.8
20260503010316 20 73 1.6 4.8 0.00 0.00 0.00 70 1008.9
20260503004824 19 68 0.0 3.2 0.00 0.00 0.00 73 1009.4
20260503003336 18 84 0.0 1.6 0.00 0.00 0.00 72 1009.8
20260503001845 18 93 0.0 1.6 0.00 0.00 0.00 72 1010.1
20260503000319 17 89 0.0 1.6 0.00 0.00 0.00 73 1010.3
20260502234838 17 72 0.0 1.6 0.00 0.00 0.00 74 1010.5
20260502233323 17 107 0.0 0.0 0.00 0.00 0.00 76 1010.6
20260502231827 16 107 0.0 1.6 0.00 0.00 0.00 78 1010.5
20260502230316 16 83 0.0 0.0 0.00 0.00 0.00 76 1010.6
20260502224826 15 83 0.0 0.0 0.00 0.00 0.00 75 1010.6
20260502223337 15 82 0.0 0.0 0.00 0.00 0.00 74 1010.4
20260502221826 15 102 0.0 0.0 0.00 0.00 0.00 71 1010.3
20260502220337 14 102 0.0 1.6 0.00 0.00 0.00 76 1010.4
20260502214820 13 102 0.0 0.0 0.00 0.00 0.00 75 1010.4
20260502213330 12 102 0.0 0.0 0.00 0.00 0.00 82 1010.3
20260502211816 12 102 0.0 0.0 0.00 0.00 0.00 82 1010.3
20260502210329 12 102 0.0 0.0 0.00 0.00 0.00 79 1010.0
20260502204823 12 115 0.0 0.0 0.00 0.00 0.00 74 1010.0
20260502203328 11 110 0.0 1.6 0.00 0.00 0.00 79 1009.6
20260502201847 11 84 0.0 0.0 0.00 0.00 0.00 78 1009.4
20260502200315 11 108 0.0 0.0 0.00 0.00 0.00 80 1009.2
20260502194834 11 108 0.0 1.6 0.00 0.00 0.00 76 1009.2
20260502193323 11 97 0.0 1.6 0.00 0.00 0.00 77 1009.3
20260502191821 11 109 0.0 1.6 0.00 0.00 0.00 77 1009.4
20260502190339 12 91 0.0 1.6 0.00 0.00 0.00 70 1009.3
20260502184818 12 77 0.0 1.6 0.00 0.00 0.00 71 1009.4
20260502183332 11 92 0.0 1.6 0.00 0.00 0.00 75 1009.3
20260502181842 10 95 0.0 1.6 0.00 0.00 0.00 79 1009.1
20260502180319 9 88 0.0 0.0 0.00 0.00 0.00 82 1009.1
20260502170317 10 98 0.0 3.2 0.00 0.00 0.00 78 1009.4
20260502163323 9 89 0.0 1.6 0.00 0.00 0.00 80 1009.3
20260502161840 9 98 0.0 1.6 0.00 0.00 0.00 81 1009.2
20260502160328 9 98 0.0 1.6 0.00 0.00 0.00 79 1009.4
20260502151842 9 104 0.0 0.0 0.00 0.00 0.00 80 1009.2
20260502150328 10 108 0.0 0.0 0.00 0.00 0.00 77 1009.0
20260502130326 11 100 0.0 0.0 0.00 0.00 0.00 77 1009.1
20260502123327 12 100 0.0 0.0 0.00 0.00 0.00 71 1008.6
20260502121839 13 100 0.0 0.0 0.00 0.00 0.00 69 1008.5
20260502120328 14 107 0.0 1.6 0.00 0.00 0.00 66 1008.3
20260502114812 15 111 0.0 3.2 0.00 0.00 0.00 64 1008.2
20260502113312 15 106 0.0 1.6 0.00 0.00 0.00 64 1008.1
20260502111833 15 105 0.0 0.0 0.00 0.00 0.00 59 1008.1
20260502110340 16 106 0.0 0.0 0.00 0.00 0.00 57 1007.7
20260502104836 17 106 0.0 0.0 0.00 0.00 0.00 52 1007.5
20260502103343 17 100 0.0 3.2 0.00 0.00 0.00 48 1007.3
20260502101841 17 96 0.0 3.2 0.00 0.00 0.00 46 1007.0
20260502100346 17 98 0.0 1.6 0.00 0.00 0.00 52 1006.7
20260502090334 19 96 0.0 3.2 0.00 0.00 0.00 47 1005.4
20260502070321 23 102 0.0 12.9 0.00 0.20 0.00 29 1002.3
20260502064834 23 95 0.0 3.2 0.00 0.61 0.00 28 1002.3
20260502063317 23 104 0.0 6.4 0.00 0.61 0.00 28 1002.0
20260502061831 24 111 3.2 8.0 0.00 0.61 0.00 28 1001.3
20260502060402 24 97 1.6 8.0 0.00 0.61 0.00 30 1000.5
20260502054827 24 104 1.6 14.5 0.00 0.71 0.00 29 1000.1
20260502053326 23 145 3.2 17.7 0.00 0.71 0.00 29 999.8
20260502051849 23 135 3.2 14.5 0.00 0.71 0.00 27 999.6
20260502050324 24 124 1.6 4.8 0.00 0.71 0.00 30 999.6
20260502044812 24 131 1.6 6.4 0.00 1.60 0.00 30 999.4
20260502043330 24 110 4.8 12.9 0.00 1.60 0.00 28 999.5
20260502041815 25 112 1.6 3.2 0.00 1.60 0.00 29 999.4
20260502040312 24 116 4.8 25.7 0.00 1.60 0.00 29 999.2
20260502034825 25 101 0.0 11.3 0.00 3.81 0.00 27 998.6
20260502033310 25 105 4.8 14.5 0.00 3.81 0.00 27 998.4
20260502031821 25 73 0.0 3.2 0.00 3.81 0.00 28 997.6
20260502030320 25 75 4.8 9.7 0.00 3.81 0.00 28 997.2
20260502024833 26 104 0.0 1.6 0.00 6.91 0.00 32 996.8
20260502023320 25 70 0.0 3.2 0.00 6.91 0.00 40 996.4